Regional Weather Roundup
Issued by NWS

Home | Current Version | Previous Version | Text Only | Print | Product List | Glossary Off
Versions: 1 2 3 4 5 6 7 8 9 10 11 12 13 14 15 16 17 18 19 20 21 22 23 24 25 26 27 28 29 30 31 32 33 34 35 36 37 38 39 40 41 42 43 44 45 46 47 48 49 50

000
ASUS43 KMPX 260810
RWRMN
WEATHER ROUNDUP FOR MINNESOTA
NATIONAL WEATHER SERVICE TWIN CITIES/CHANHASSEN MN
200 AM CST WED NOV 26 2014


NOTE: "FAIR" INDICATES FEW OR NO CLOUDS BELOW 12,000 FEET WITH NO
SIGNIFICANT WEATHER AND/OR OBSTRUCTIONS TO VISIBILITY. N/A MEANS
CURRENT SKY AND/OR WEATHER CONDITIONS ARE NOT AVAILABLE.

MNZ060>063-068>070-260900-
   Twin Cities Metro

CITY           SKY/WX    TMP DP  RH WIND       PRES   REMARKS
TWIN CITIES    CLOUDY    24  16  71 E9        30.03S WCI  14
ST PAUL        CLOUDY    24  16  71 SE9       30.05S WCI  14
CRYSTAL        CLOUDY    26  16  65 E5        30.02R WCI  20
BLAINE         CLOUDY    27  18  69 E5        30.02S WCI  21
LAKEVILLE      MOCLDY    21  18  86 E6        30.01S WCI  14
EDEN PRAIRIE   MOCLDY    24  16  71 E8        30.01R WCI  15
SOUTH ST PAUL  CLOUDY    26  16  68 SE6       30.04R WCI  19
LAKE ELMO      CLOUDY    27  18  69 E6        30.04S WCI  20
$$
MNZ001>005-007-008-013>017-022>024-027-028-260900-
   Northwest Minnesota

CITY           SKY/WX    TMP DP  RH WIND       PRES   REMARKS
BEMIDJI        LGT SNOW  17  14  88 N7        30.07R WCI   7
HALLOCK        PTCLDY     1  -4  78 N14       30.24R WCI -17
ROSEAU         CLOUDY     9   3  78 N10       30.19R WCI  -6
WARROAD        CLOUDY     9   5  85 N8        30.17R WCI  -4
THIEF RVR FALL MOCLDY    12   9  85 N10       30.15R WCI  -1
CROOKSTON      CLOUDY    12   9  85 N15       30.19R WCI  -4
FOSSTON        LGT SNOW  12  10  92 N14       30.11R WCI  -3
DETROIT LAKES  MOCLDY    19  18  93 N3        30.06R
MOORHEAD       MIX PCPN  18  18 100 N18G26    30.12R WCI   2
PARK RAPIDS    CLOUDY    17  12  80 N3        30.03R
MAHNOMEN       LGT SNOW  17  14  89 N16       30.08R WCI   1
$$
MNZ006-009>011-018-025>026-260900-
   North Central Minnesota

CITY           SKY/WX    TMP DP  RH WIND       PRES   REMARKS
BAUDETTE       LGT SNOW  12   8  84 N12       30.13R FOG     WCI  -2
FLAG ISLAND    MOCLDY     7   1  78 N14       30.17R WCI -10
INTL FALLS     LGT SNOW  14  10  84 N5        30.10R FOG     WCI   6
WASKISH        LGT SNOW  14  12  92 CALM      30.11R
BIG FORK       LGT SNOW  18  12  79 N3        30.07R
LONGVILLE      CLOUDY    18  12  79 CALM      30.05R
GRAND RAPIDS   CLOUDY    18  10  73 CALM      30.04R
CRANE LAKE     MOCLDY    10   9  92 CALM      30.11R
ORR            CLOUDY    16   9  73 CALM      30.05R
COOK           CLOUDY    16  10  79 CALM      30.07R
WALKER         CLOUDY    18   9  69 CALM      30.05R
$$
MNZ012-019>021-037-260900-
   Northeast Minnesota

CITY           SKY/WX    TMP DP  RH WIND       PRES   REMARKS
DULUTH         CLOUDY    19  10  68 NE3       30.05R
ELY            CLOUDY     9   7  92 CALM      30.06R
HIBBING        CLOUDY    20   9  62 CALM      30.05R
EVELETH        CLOUDY    21  12  68 CALM      30.06R
DULUTH HARBOR  CLOUDY    21  16  79 CALM      30.12R
TWO HARBORS    CLOUDY    21  12  68 CALM      30.06R
SILVER BAY     MOCLDY    12   9  85 CALM      30.07R
GRAND MARAIS     N/A     19   6  57 N8        30.11R WCI   9
G MARAIS ARPRT PTCLDY     0  -6  78 N3        30.04R
$$
MNZ029>031-032-039>041-046>048-054>057-064-260900-
   West Central Minnesota

CITY           SKY/WX    TMP DP  RH WIND       PRES   REMARKS
FERGUS FALLS   CLOUDY    19  14  79 NE7       30.07R WCI  10
WHEATON        MIX PCPN  21  16  79 N14G20    30.04R WCI   8
MORRIS         CLOUDY    25  18  74 NE13      29.97R WCI  13
ALEXANDRIA     CLOUDY    20  13  74 NE8       30.00R WCI  10
ELBOW LAKE       N/A     20  15  81 NE10      30.01R WCI   9
WADENA         CLOUDY    18  10  73 NE5       30.02R WCI  11
GLENWOOD       CLOUDY    21  16  79 NE12      29.99R WCI   9
APPLETON       CLOUDY    27  19  74 E13       29.96R WCI  16
BENSON         FLURRIES  25  18  74 E8        29.97R WCI  16
ORTONVILLE     FLURRIES  25  19  80 NE12      29.96R WCI  14
MADISON        LGT SNOW  30  28  93 NE9       29.94R WCI  22
WILLMAR        LGT SNOW  27  19  74 E10       29.97R WCI  17
$$
MNZ033>034-036-042>043-049>051-058-059-260900-
   Central Minnesota

CITY           SKY/WX    TMP DP  RH WIND       PRES   REMARKS
ST CLOUD       CLOUDY    24  16  71 E7        30.02R WCI  16
SAUK CENTRE    CLOUDY    21  15  78 NE8       30.00R WCI  11
PAYNESVILLE    CLOUDY    22  16  77 N7        29.99R WCI  13
AITKIN         CLOUDY    21  12  68 E3        30.04R
PINE RIVER     FLURRIES  18  10  73 CALM      30.07S
BRAINERD       CLOUDY    18  12  77 E5        30.05R WCI  11
STAPLES        CLOUDY    18   9  68 NE3       30.03R
LONG PRAIRIE   CLOUDY    21  14  73 NE5       30.01R WCI  15
LITTLE FALLS   CLOUDY    21  14  73 NE3       30.03R
LITCHFIELD     CLOUDY    27  19  74 E7        29.98R WCI  19
BUFFALO        CLOUDY    25  18  74 E6        30.01S WCI  18
MAPLE LAKE     MOCLDY    24  19  81 NE7       30.01S WCI  16
$$
MNZ037-044-045-052-053-260900-
   East Central Minnesota

CITY           SKY/WX    TMP DP  RH WIND       PRES   REMARKS
PRINCETON      CLOUDY    25  18  74 CALM      30.02S
MORA           CLOUDY    19  14  79 CALM      30.07R
CAMBRIDGE      CLOUDY    25  16  68 E3        30.03R
RUSH CITY      CLOUDY    22  18  83 NE3       30.06R
MOOSE LAKE     CLOUDY    19  14  79 CALM      30.05S
HINCKLEY       CLOUDY    21  18  86 CALM      30.07R
CLOQUET        CLOUDY    19  12  73 CALM      30.06R
MCGREGOR       CLOUDY    19  14  79 NE3       30.06R
$$
MNZ071>073-080-081-089-090-097-098-260900-
   Southwest Minnesota

CITY           SKY/WX    TMP DP  RH WIND       PRES   REMARKS
MONTEVIDEO     FLURRIES  25  23  93 E9        29.95R WCI  15
GRANITE FALLS  FLURRIES  26  24  92 E7        29.94R WCI  19
CANBY          LGT SNOW  28  27  96 E7        29.91R WCI  21
MARSHALL       CLOUDY    27  23  86 E9        29.89R WCI  17
REDWOOD FALLS  LGT SNOW  26  23  88 E9        29.93R FOG     WCI  17
OLIVIA         PTCLDY    27  21  80 E8        29.94R WCI  18
PIPESTONE      FLURRIES  28  27  93 SE8       29.82R WCI  20
WINDOM         LGT SNOW  27  25  93 E8        29.88R VSB 1   WCI  18
WORTHINGTON    CLOUDY    27  25  93 SE12      29.85S WCI  16
JACKSON        LGT SNOW  28  27  93 SE13      29.87S WCI  18
TRACY          LGT SNOW  27  26  94 SE8       29.88R WCI  19
SLAYTON        CLOUDY    26  26  98 E9        29.85S WCI  17
$$
MNZ065>067-074>077-082>085-091>093-260900-
   South Central Minnesota

CITY           SKY/WX    TMP DP  RH WIND       PRES   REMARKS
MANKATO        CLOUDY    25  16  68 SE14      29.96R WCI  13
NEW ULM        LGT SNOW  25  21  86 SE7       29.94S WCI  17
ST JAMES       LGT SNOW  27  23  86 E12       29.93S WCI  16
FAIRMONT       CLOUDY    27  21  80 SE13      29.91S WCI  16
GLENCOE        CLOUDY    26  20  79 E9        29.97S WCI  17
FARIBAULT      LGT SNOW  25  18  74 SE7       30.00R WCI  17
OWATONNA       LGT SNOW  25  19  80 SE13      29.98S WCI  13
WASECA         CLOUDY    25  19  80 SE14      29.98S WCI  13
ALBERT LEA     LGT SNOW  25  19  80 SE14      29.97R WCI  13
$$
MNZ078>079-086>088-094>096-260900-
   Southeast Minnesota

CITY           SKY/WX    TMP DP  RH WIND       PRES   REMARKS
ROCHESTER      CLOUDY    19  14  81 SE10      30.01S WCI   7
RED WING       CLOUDY    23  14  68 E6        30.05S WCI  16
STANTON        CLOUDY    25  17  71 E5        30.00S WCI  19
DODGE CENTER   CLOUDY    21  18  86 SE9       29.99S WCI  11
WINONA         CLOUDY    21  18  86 SE8       30.09S WCI  12
AUSTIN         LGT SNOW  25  19  80 SE8       29.99F WCI  16
PRESTON        MOCLDY    17  14  87 SE3       30.02F
$$
ABBREVIATIONS USED IN REMARKS
   TC - TEMPERATURES IN CELSIUS
  WCI - WIND CHILL INDEX
   HX - HEAT INDEX
  VSB - VISIBILITY
$$


USA.gov is the U.S. government's official web portal to all federal, state and local government web resources and services.